Wind_Speed
21 21 21 21 21 22 22 22 23 22 23 23 24 24 24 24 25 26 27 29 30 31 30 31 31 32 33 35 37 39 41 42 42 41 41 42 44 45 46 45 45 46 46 45
22 22 22 22 22 23 23 23 24 24 24 24 25 25 25 25 25 26 27 28 29 30 29 29 30 32 34 35 36 38 39 40 40 41 41 41 42 43 44 43 44 45 46 46
24 23 23 23 22 23 23 23 24 24 23 24 23 24 24 24 25 26 26 27 28 29 29 29 29 30 33 35 36 36 37 38 38 38 40 41 42 42 42 43 44 44 45 45
25 25 24 23 23 23 24 23 23 23 22 23 23 23 24 24 25 25 25 26 27 28 29 30 30 31 31 32 33 35 36 38 39 39 39 39 40 41 42 42 42 43 44 45
26 26 26 24 23 23 24 23 23 23 22 23 23 23 23 24 24 24 26 26 27 28 29 31 31 31 32 32 33 34 35 36 37 37 38 39 39 41 42 43 43 44 44 44
25 26 26 24 24 25 25 25 23 23 23 23 23 24 24 25 25 25 26 26 27 27 28 30 31 31 31 32 33 34 36 36 37 38 38 39 40 40 41 42 42 41 41 41
25 25 26 25 27 26 26 25 24 24 24 25 25 25 25 26 26 26 26 26 26 27 28 29 30 31 31 31 32 34 35 35 36 37 38 39 39 39 39 40 41 40 40 41
26 26 26 27 28 27 27 26 26 26 26 27 27 27 27 28 27 27 27 27 27 27 28 29 30 31 31 32 33 34 35 36 36 36 36 37 37 38 39 40 40 40 40 40
27 28 28 28 29 29 29 28 28 28 28 29 29 29 30 30 29 28 28 28 29 29 29 29 30 31 32 32 33 33 34 34 35 35 36 36 36 37 38 39 39 38 38 38
29 29 29 30 30 30 30 30 30 30 31 31 31 31 31 31 31 30 29 29 30 30 30 29 29 30 31 31 32 32 32 33 34 34 35 36 37 38 38 38 38 38 37 38
28 28 30 30 30 31 32 32 32 33 33 33 33 33 32 32 31 31 31 32 32 32 32 31 31 31 30 31 31 32 32 33 34 34 35 36 37 38 38 38 37 37 37 37
29 29 30 30 31 32 33 33 34 34 34 34 34 33 32 33 33 32 33 33 33 33 33 33 32 32 32 32 32 32 32 33 34 35 36 36 36 37 38 38 37 37 37 37
30 30 30 30 31 31 33 34 34 35 35 35 34 33 32 32 32 32 32 33 33 32 33 33 33 32 32 33 33 32 33 33 33 34 35 36 36 36 36 36 36 36 36 36
31 31 31 31 32 32 32 33 33 33 33 33 33 32 31 30 30 30 31 31 32 32 32 32 32 32 32 32 32 32 32 33 33 34 34 34 35 35 36 35 35 35 35 36
31 32 32 32 33 33 33 32 32 32 32 32 31 31 31 30 30 30 30 31 31 31 32 31 32 32 33 32 32 32 32 32 33 33 34 34 35 35 35 35 35 35 36 36
32 33 33 33 33 33 33 33 33 33 33 33 33 33 32 32 32 31 31 31 31 31 31 30 31 31 32 32 32 32 32 32 32 32 33 33 33 33 33 34 34 34 35 35
33 33 33 33 33 33 33 33 33 33 33 33 34 34 33 33 33 33 32 32 31 31 30 30 30 30 31 31 32 32 32 32 32 33 33 32 32 32 33 33 34 34 35 35
34 34 34 34 34 34 34 34 34 34 33 33 34 34 34 34 34 34 33 33 32 32 32 32 32 32 32 32 32 32 32 32 32 32 33 33 33 33 33 33 34 34 34 34
34 33 34 34 34 34 34 34 34 34 34 34 34 34 35 36 36 35 35 34 34 34 34 34 34 33 33 32 32 32 33 33 33 33 33 33 33 33 34 34 34 34 34 34
33 33 33 33 34 34 33 33 33 33 34 34 34 34 34 34 35 35 35 35 35 35 35 35 35 34 34 33 33 33 33 33 33 33 33 33 33 33 34 34 34 34 34 33
31 32 33 33 32 33 33 32 32 33 33 33 33 33 33 33 33 34 34 34 34 35 34 34 34 34 34 33 33 33 32 33 33 33 32 32 32 33 33 33 33 32 32 32
31 31 32 33 33 33 33 33 33 33 33 32 32 32 32 32 32 33 33 33 33 34 34 34 34 34 33 33 33 32 32 32 32 32 33 33 33 32 32 31 31 31 30 30
32 32 32 33 33 34 33 33 33 32 32 32 32 32 31 31 32 32 32 33 33 33 33 33 33 32 32 32 32 32 32 31 31 31 32 32 31 31 30 29 29 28 28 27
33 33 33 33 33 33 33 33 33 33 33 32 32 32 32 32 31 31 32 32 32 32 31 31 32 32 32 33 32 32 31 31 30 30 31 31 30 29 28 27 26 26 25 25
34 34 34 34 34 34 34 34 33 33 33 32 32 32 32 32 31 31 31 31 31 31 31 31 31 32 32 32 32 31 31 30 30 30 29 28 27 26 25 25 24 23 22 22
34 34 34 34 34 34 34 34 33 33 33 32 32 32 32 32 32 31 30 30 30 30 30 30 30 30 30 30 30 30 29 29 28 27 26 25 24 23 22 22 21 21 20 20
33 33 33 33 34 33 33 33 33 33 33 33 32 32 31 31 31 30 29 29 28 28 28 28 28 28 27 27 27 26 26 25 25 24 23 22 21 21 20 20 20 20 19 18
Wind_Direction
277 281 280 277 272 269 271 275 275 275 276 276 274 275 272 270 266 260 258 258 260 262 262 262 262 261 260 259 258 258 257 256 256 257 258 259 261 262 264 265 265 266 268 269
278 280 280 277 274 274 275 278 278 276 276 275 273 273 270 269 268 264 261 260 261 262 263 262 262 262 262 263 262 261 259 258 257 258 260 261 261 263 265 266 267 267 268 270
278 280 278 276 277 278 278 281 282 280 278 274 274 272 270 269 268 267 264 264 263 263 263 265 266 264 263 262 262 262 261 260 259 260 261 262 263 264 266 268 268 269 269 270
278 277 277 277 278 280 282 283 284 282 278 273 273 272 270 271 271 267 265 264 263 265 263 266 268 268 265 262 262 263 264 261 259 260 262 263 264 264 266 269 271 270 271 272
277 276 277 279 281 281 282 283 283 282 280 274 271 271 269 271 272 269 267 267 267 267 267 268 269 269 265 262 262 262 263 261 260 262 264 264 265 266 267 269 270 272 272 273
278 277 278 280 282 284 282 281 281 281 280 277 274 274 274 274 274 270 270 270 270 271 271 271 270 270 268 265 262 263 263 264 265 265 265 266 266 266 268 269 271 273 274 275
276 276 279 281 282 283 282 283 282 281 281 280 279 278 277 275 274 271 272 272 273 274 274 273 272 270 269 268 265 264 264 265 267 269 269 269 268 267 269 270 272 272 274 274
275 275 278 279 279 279 281 280 280 280 280 280 281 280 279 278 276 273 272 274 275 275 277 276 273 271 271 268 266 266 266 266 268 269 270 271 271 270 271 273 273 273 273 274
277 276 276 276 276 277 277 277 278 279 279 279 280 280 280 279 278 275 273 275 276 276 277 277 275 274 272 270 268 267 268 268 268 269 269 270 272 272 271 273 275 275 275 275
277 277 277 277 276 276 275 276 277 279 279 279 279 280 280 278 277 275 275 276 277 278 277 277 276 274 274 274 271 270 271 270 270 270 271 271 272 273 274 275 277 278 278 278
279 279 278 278 277 276 275 275 276 279 280 279 280 280 280 279 278 277 276 277 277 277 277 276 276 275 274 275 275 275 274 273 272 272 273 274 275 276 277 277 278 280 279 279
279 279 279 279 278 277 276 276 277 279 280 280 279 280 280 280 279 278 278 278 278 278 277 276 276 274 273 274 274 274 274 274 273 273 273 274 275 276 276 277 278 279 279 280
279 280 280 278 278 279 277 277 277 278 278 279 278 278 279 279 279 279 279 279 278 278 277 277 277 274 272 272 273 273 274 274 274 275 274 274 276 276 276 276 277 278 279 280
277 279 279 278 277 278 279 279 277 276 277 278 277 277 277 278 278 280 280 279 279 278 278 278 277 275 273 273 273 274 275 275 274 275 276 277 277 278 277 277 277 279 280 281
276 277 277 278 278 278 279 279 278 277 277 278 277 276 276 276 277 279 280 280 280 279 279 278 277 277 276 275 275 276 277 277 277 277 278 278 278 279 279 278 278 279 280 280
277 278 279 279 278 277 277 278 279 278 278 277 277 276 276 277 278 279 279 280 280 280 280 280 279 278 277 277 277 277 278 278 278 278 279 279 279 279 279 279 279 280 281 281
279 280 280 280 278 277 277 278 279 279 278 277 277 277 276 276 278 279 279 280 280 281 280 280 280 280 279 279 278 278 278 278 278 278 279 279 279 279 279 279 280 281 282 283
280 280 280 280 279 278 277 276 277 277 277 276 276 276 276 276 276 277 278 279 279 279 279 279 280 280 281 280 280 280 279 279 279 279 279 279 279 279 279 279 280 281 282 282
280 280 281 281 280 279 279 277 277 277 277 278 277 276 276 276 275 275 276 276 277 277 277 278 278 279 280 281 281 281 280 280 279 279 279 278 277 278 279 279 280 280 281 282
281 281 281 281 281 279 279 279 279 278 278 279 279 278 277 276 275 275 275 275 276 276 276 275 276 277 279 280 281 282 282 281 280 279 279 278 278 279 279 280 280 280 280 280
284 283 281 281 281 280 278 278 279 278 278 279 279 278 278 277 277 276 275 275 275 275 275 275 276 276 277 278 280 280 281 282 280 279 279 279 280 280 281 281 280 279 278 279
284 284 284 283 283 282 280 278 278 278 278 278 279 279 278 278 278 277 276 275 274 274 275 276 276 276 276 277 278 279 280 281 281 280 280 281 281 281 281 280 279 279 278 278
283 284 285 285 285 284 281 279 278 277 278 279 279 280 280 279 278 277 277 276 275 274 275 275 275 274 274 275 276 278 279 281 281 281 281 282 282 281 280 279 278 278 277 277
282 284 285 285 285 284 281 278 278 278 279 280 280 280 280 280 280 278 277 277 275 274 275 275 275 274 274 275 276 277 279 280 281 282 282 282 281 280 278 277 277 277 277 276
283 283 284 285 284 283 282 280 278 278 278 279 279 279 279 279 279 279 278 278 276 276 276 276 276 275 276 277 277 277 278 279 280 282 282 281 280 278 276 276 277 277 275 273
284 285 284 284 284 283 283 281 280 278 277 277 278 278 278 277 278 279 279 278 278 277 277 277 277 276 277 277 277 277 277 277 279 280 280 279 277 275 274 274 274 275 274 275
287 286 285 285 284 284 283 282 281 279 278 277 277 277 277 277 277 277 277 277 277 277 277 277 277 277 276 276 277 277 276 275 277 279 278 276 274 272 271 272 274 274 275 276
Height
5616 5615 5614 5613 5613 5612 5612 5612 5611 5612 5612 5612 5610 5609 5609 5608 5608 5608 5608 5608 5609 5610 5610 5611 5611 5611 5611 5612 5614 5615 5617 5620 5622 5624 5627 5629 5630 5631 5632 5633 5633 5634 5633 5633
5611 5610 5608 5608 5608 5607 5607 5606 5606 5605 5606 5606 5604 5603 5602 5602 5601 5601 5601 5601 5602 5603 5603 5603 5603 5604 5604 5605 5606 5607 5609 5610 5612 5614 5617 5618 5620 5621 5621 5621 5622 5622 5622 5622
5606 5605 5603 5603 5604 5603 5602 5602 5601 5599 5601 5599 5598 5597 5596 5596 5595 5594 5595 5595 5595 5595 5596 5596 5596 5596 5597 5598 5598 5599 5600 5601 5603 5605 5606 5608 5609 5610 5610 5611 5611 5611 5610 5611
5600 5599 5598 5602 5599 5598 5597 5596 5595 5594 5594 5593 5592 5591 5590 5590 5589 5589 5588 5588 5588 5588 5588 5588 5588 5588 5589 5589 5590 5590 5591 5592 5594 5595 5596 5597 5598 5599 5600 5600 5600 5600 5599 5599
5594 5592 5592 5595 5593 5592 5591 5591 5590 5589 5588 5587 5586 5585 5585 5585 5583 5583 5582 5582 5582 5582 5581 5581 5581 5581 5581 5581 5581 5581 5582 5583 5584 5585 5586 5587 5588 5588 5589 5589 5589 5589 5588 5587
5588 5586 5586 5590 5588 5585 5585 5585 5585 5583 5582 5581 5580 5579 5580 5579 5577 5577 5576 5575 5575 5574 5574 5574 5573 5573 5573 5573 5573 5573 5574 5574 5575 5575 5576 5577 5577 5578 5578 5578 5578 5578 5577 5576
5582 5580 5581 5582 5580 5579 5579 5580 5578 5576 5575 5574 5574 5574 5573 5571 5570 5570 5569 5568 5568 5567 5567 5566 5566 5565 5565 5565 5565 5565 5565 5566 5566 5566 5566 5567 5567 5567 5568 5568 5568 5568 5567 5566
5575 5574 5577 5574 5573 5572 5572 5571 5570 5569 5568 5568 5567 5567 5566 5564 5563 5563 5562 5561 5561 5560 5559 5558 5557 5557 5557 5557 5557 5557 5557 5557 5557 5557 5557 5557 5557 5557 5557 5558 5557 5557 5556 5555
5570 5570 5568 5566 5565 5564 5564 5563 5562 5561 5561 5560 5560 5559 5558 5557 5556 5555 5555 5554 5553 5552 5551 5551 5550 5549 5549 5549 5548 5548 5548 5548 5548 5548 5548 5548 5547 5547 5547 5547 5547 5546 5545 5544
5562 5562 5560 5558 5557 5556 5555 5555 5554 5554 5553 5552 5552 5551 5550 5549 5548 5547 5547 5546 5545 5544 5544 5543 5542 5541 5541 5540 5540 5539 5539 5539 5539 5539 5539 5538 5538 5538 5538 5537 5537 5536 5535 5534
5554 5553 5551 5551 5549 5548 5547 5546 5546 5545 5545 5544 5543 5542 5541 5540 5540 5539 5538 5537 5537 5536 5535 5534 5533 5533 5532 5532 5531 5531 5530 5530 5530 5529 5529 5529 5529 5528 5527 5527 5526 5525 5524 5523
5546 5545 5543 5542 5540 5539 5538 5537 5537 5536 5536 5535 5534 5533 5532 5531 5530 5530 5529 5528 5527 5527 5526 5525 5524 5524 5523 5523 5522 5522 5521 5521 5520 5520 5520 5519 5519 5519 5517 5517 5516 5514 5513 5513
5537 5535 5534 5533 5532 5530 5529 5528 5528 5527 5526 5525 5525 5524 5523 5522 5521 5521 5520 5519 5518 5517 5516 5516 5515 5514 5514 5513 5513 5513 5512 5512 5511 5510 5510 5509 5509 5508 5508 5507 5506 5504 5503 5502
5527 5526 5525 5524 5523 5522 5520 5519 5518 5518 5517 5516 5516 5515 5514 5514 5513 5512 5511 5510 5509 5508 5507 5506 5506 5505 5504 5504 5503 5503 5502 5501 5501 5500 5499 5499 5498 5498 5497 5496 5496 5494 5493 5491
5519 5517 5516 5515 5514 5513 5512 5510 5510 5509 5508 5507 5506 5506 5505 5505 5504 5503 5502 5501 5500 5499 5498 5497 5496 5496 5495 5494 5494 5493 5492 5492 5491 5490 5489 5489 5488 5487 5486 5485 5484 5484 5483 5481
5509 5508 5507 5506 5505 5503 5502 5501 5501 5500 5499 5498 5497 5497 5496 5496 5495 5494 5493 5492 5491 5490 5489 5488 5487 5486 5485 5484 5484 5483 5482 5482 5481 5480 5479 5479 5477 5476 5475 5474 5473 5472 5472 5470
5499 5498 5497 5496 5495 5494 5493 5492 5491 5490 5489 5488 5488 5487 5486 5486 5485 5485 5484 5483 5482 5481 5480 5479 5478 5477 5476 5475 5474 5473 5473 5472 5471 5470 5469 5468 5467 5466 5465 5464 5463 5462 5461 5460
5489 5488 5487 5486 5485 5484 5483 5482 5481 5480 5479 5478 5478 5477 5476 5476 5475 5474 5474 5473 5472 5471 5470 5469 5468 5467 5466 5465 5464 5463 5462 5462 5461 5460 5459 5457 5456 5456 5455 5454 5453 5452 5450 5449
5479 5478 5477 5476 5475 5474 5473 5472 5471 5470 5469 5468 5467 5466 5465 5465 5464 5464 5463 5462 5461 5461 5460 5459 5458 5457 5456 5455 5454 5453 5452 5451 5450 5449 5448 5447 5446 5445 5444 5443 5442 5441 5440 5439
5470 5468 5467 5466 5465 5464 5463 5462 5461 5460 5459 5458 5456 5455 5454 5454 5453 5452 5452 5451 5451 5450 5449 5448 5447 5447 5446 5445 5444 5443 5442 5441 5440 5439 5438 5437 5436 5435 5434 5433 5432 5431 5430 5429
5460 5459 5457 5456 5455 5453 5452 5452 5451 5450 5448 5447 5446 5445 5444 5443 5442 5441 5441 5441 5440 5438 5438 5437 5437 5436 5435 5435 5434 5433 5432 5431 5429 5428 5428 5427 5426 5425 5424 5423 5421 5420 5419 5418
5451 5449 5448 5446 5445 5443 5442 5441 5440 5439 5438 5437 5436 5435 5434 5433 5432 5431 5430 5430 5429 5428 5427 5427 5426 5425 5425 5424 5424 5423 5422 5420 5419 5418 5418 5417 5416 5415 5414 5412 5411 5410 5409 5409
5441 5439 5438 5436 5434 5433 5431 5430 5430 5429 5428 5427 5426 5425 5424 5423 5422 5421 5420 5419 5418 5417 5417 5416 5415 5415 5414 5414 5413 5413 5412 5411 5409 5409 5408 5407 5406 5405 5404 5403 5402 5401 5401 5400
5431 5429 5427 5425 5424 5422 5421 5420 5419 5418 5417 5416 5415 5414 5413 5412 5411 5410 5409 5409 5408 5407 5407 5406 5405 5405 5404 5404 5403 5402 5402 5401 5400 5399 5398 5397 5396 5395 5394 5394 5393 5393 5392 5392
5420 5418 5416 5415 5413 5412 5410 5409 5408 5408 5407 5406 5405 5404 5403 5402 5401 5400 5399 5398 5398 5397 5397 5396 5395 5395 5394 5393 5393 5392 5392 5391 5390 5389 5388 5387 5386 5386 5386 5385 5385 5385 5384 5384
5409 5407 5405 5404 5402 5401 5400 5399 5398 5397 5396 5395 5394 5393 5392 5391 5391 5390 5389 5389 5388 5387 5387 5386 5386 5385 5384 5383 5383 5382 5382 5381 5380 5380 5379 5379 5378 5378 5378 5378 5378 5378 5378 5378
5398 5396 5394 5393 5391 5390 5389 5388 5387 5386 5385 5384 5384 5383 5382 5381 5381 5380 5379 5379 5379 5378 5377 5377 5376 5376 5375 5374 5374 5373 5372 5372 5372 5372 5371 5371 5371 5371 5371 5372 5372 5372 5372 5372